CW8262 Weather Reports


Display with metric or nautical units.
time (UTC)temp
F
wind
direction
speed
MPH
gust
MPH
rain 1hr
in
rain 24hr
in
rain mn
in
humidity
%
barometer
mb
20181017080202 48 338 2.0 3.0 0.00 0.03 0.03 59 1023.5
20181017075701 48 315 2.0 3.0 0.00 0.03 0.03 60 1023.5
20181017074702 49 353 2.0 3.0 0.00 0.03 0.03 62 1023.6
20181017073702 49 308 2.0 2.0 0.00 0.03 0.03 64 1023.6
20181017073202 49 338 2.0 2.0 0.00 0.03 0.03 65 1023.6
20181017072701 50 331 2.0 2.0 0.00 0.03 0.03 65 1023.7
20181017071702 50 315 3.0 3.0 0.00 0.03 0.03 67 1023.7
20181017071202 51 292 2.0 3.0 0.00 0.03 0.03 67 1023.7
20181017070702 51 322 3.0 3.0 0.00 0.03 0.03 68 1024.1
20181017065702 51 303 5.0 5.0 0.00 0.03 0.03 68 1024.1
20181017065201 52 338 5.0 8.0 0.00 0.03 0.03 68 1024.1
20181017064702 52 276 5.0 7.0 0.00 0.03 0.03 68 1024.4
20181017063702 53 276 6.0 7.0 0.00 0.03 0.03 68 1024.4
20181017063202 53 315 6.0 8.0 0.00 0.03 0.03 68 1024.4
20181017061701 54 281 7.0 7.0 0.00 0.03 0.03 68 1024.7
20181017061202 55 270 7.0 12.0 0.00 0.03 0.03 67 1024.7
20181017060702 55 253 7.0 12.0 0.00 0.03 0.03 67 1024.6
20181017055702 56 270 7.0 10.0 0.00 0.03 0.03 67 1024.6
20181017055202 56 270 8.0 9.0 0.00 0.03 0.03 67 1024.6
20181017054702 56 262 8.0 14.0 0.00 0.03 0.03 66 1024.6
20181017054202 57 270 8.0 13.0 0.00 0.03 0.03 66 1024.6
20181017053702 57 270 7.0 12.0 0.00 0.03 0.03 66 1024.6
20181017053202 57 270 8.0 9.0 0.00 0.03 0.03 66 1024.6
20181017052202 58 270 8.0 9.0 0.00 0.03 0.03 66 1024.6
20181017051702 58 265 9.0 12.0 0.00 0.03 0.03 65 1024.6
20181017051202 59 225 10.0 13.0 0.00 0.03 0.03 65 1024.6
20181017050702 59 266 9.0 13.0 0.00 0.03 0.03 65 1024.2
20181017050201 60 225 9.0 12.0 0.00 0.03 0.03 64 1024.2
20181017045702 60 270 9.0 12.0 0.00 0.03 0.03 64 1024.2
20181017044702 60 311 10.0 14.0 0.00 0.03 0.03 63 1023.9
20181017044201 61 270 9.0 12.0 0.00 0.03 0.03 62 1023.9
20181017043702 61 274 8.0 12.0 0.00 0.03 0.03 62 1023.9
20181017043201 61 270 9.0 12.0 0.00 0.03 0.03 62 1023.9
20181017041702 62 263 8.0 9.0 0.00 0.03 0.03 60 1023.4
20181017040702 62 248 8.0 12.0 0.00 0.03 0.03 60 1022.8
20181017040202 62 202 8.0 12.0 0.00 0.03 0.03 60 1022.8
20181017035201 61 248 8.0 12.0 0.00 0.03 0.03 62 1022.8
20181017034702 61 251 8.0 12.0 0.00 0.03 0.03 60 1022.9
20181017034201 61 225 9.0 12.0 0.00 0.03 0.03 59 1022.9
20181017033701 61 248 11.0 15.0 0.00 0.03 0.03 58 1022.9
20181017032202 63 270 10.0 14.0 0.00 0.03 0.03 60 1022.6
20181017030702 62 254 11.0 14.0 0.00 0.03 0.03 58 1022.4
20181017030202 62 248 10.0 17.0 0.00 0.03 0.03 61 1022.4
20181017025702 63 265 10.0 15.0 0.00 0.03 0.03 60 1022.4
20181017025201 63 248 10.0 12.0 0.00 0.03 0.03 56 1022.4
20181017024702 63 248 12.0 14.0 0.00 0.03 0.03 59 1022.1
20181017023701 63 212 12.0 17.0 0.00 0.03 0.03 58 1022.1
20181017022702 63 248 12.0 16.0 0.00 0.03 0.03 58 1021.4
20181017022201 64 270 13.0 16.0 0.00 0.03 0.03 59 1021.4
20181017021701 64 270 11.0 17.0 0.00 0.03 0.03 59 1021.4
20181017021202 64 270 10.0 13.0 0.00 0.03 0.03 60 1021.4
20181017020201 63 248 10.0 13.0 0.00 0.03 0.03 60 1021.9
20181017015701 63 234 10.0 14.0 0.00 0.03 0.03 61 1021.9
20181017015201 63 248 10.0 14.0 0.00 0.03 0.03 58 1021.9
20181017014202 63 270 12.0 15.0 0.00 0.03 0.03 60 1021.8
20181017013702 63 308 12.0 16.0 0.00 0.03 0.03 61 1021.8
20181017013202 63 270 11.0 16.0 0.00 0.03 0.03 59 1021.8
20181017012702 63 252 9.0 16.0 0.00 0.03 0.03 60 1021.9
20181017012202 62 248 9.0 12.0 0.00 0.03 0.03 59 1021.9
20181017011702 62 244 9.0 12.0 0.00 0.03 0.03 58 1021.9
20181017011202 62 248 10.0 12.0 0.00 0.03 0.03 59 1021.9
20181017010701 62 248 12.0 15.0 0.00 0.03 0.03 59 1021.4
20181017010201 62 270 12.0 15.0 0.00 0.03 0.03 61 1021.4
20181017005201 61 270 9.0 14.0 0.00 0.03 0.03 61 1021.4
20181017004702 61 248 9.0 14.0 0.00 0.03 0.03 63 1021.9
20181017004202 61 248 9.0 16.0 0.00 0.03 0.03 63 1021.9
20181017002702 60 248 10.0 16.0 0.00 0.03 0.03 64 1021.8
20181017002201 59 248 9.0 16.0 0.00 0.03 0.03 62 1021.8
20181017001701 59 208 8.0 14.0 0.00 0.03 0.03 63 1021.8
20181017001201 59 248 8.0 10.0 0.00 0.03 0.03 62 1021.8
20181017000703 60 205 10.0 12.0 0.00 0.03 0.03 63 1021.7
20181016235702 61 250 12.0 15.0 0.00 0.06 0.03 64 1021.7
20181016234702 60 250 13.0 17.0 0.00 0.06 0.03 65 1021.8
20181016233702 59 270 13.0 16.0 0.00 0.06 0.03 67 1021.8
20181016233202 59 270 12.0 18.0 0.00 0.06 0.03 66 1021.8
20181016232702 59 270 11.0 16.0 0.00 0.06 0.03 65 1021.9
20181016231702 58 249 9.0 13.0 0.00 0.06 0.03 65 1021.9
20181016231202 58 248 9.0 10.0 0.00 0.06 0.03 65 1021.9
20181016230701 58 246 9.0 10.0 0.00 0.06 0.03 65 1022.1
20181016230201 58 225 10.0 14.0 0.00 0.06 0.03 63 1022.1
20181016225702 57 270 12.0 14.0 0.00 0.06 0.03 65 1022.1
20181016225202 57 270 12.0 14.0 0.00 0.06 0.03 65 1022.1
20181016224703 58 270 12.0 15.0 0.00 0.06 0.03 64 1022.6
20181016224202 57 248 10.0 15.0 0.00 0.06 0.03 64 1022.6
20181016223702 58 227 10.0 15.0 0.00 0.06 0.03 66 1022.6
20181016223202 57 248 10.0 15.0 0.00 0.06 0.03 66 1022.6
20181016222702 57 270 11.0 14.0 0.00 0.06 0.03 65 1022.9
20181016222201 57 248 12.0 15.0 0.00 0.06 0.03 66 1022.9
20181016221702 56 269 13.0 15.0 0.00 0.06 0.03 67 1022.9
20181016221202 55 270 14.0 15.0 0.00 0.06 0.03 68 1022.9
20181016220701 55 269 13.0 21.0 0.00 0.06 0.03 68 1022.8
20181016220202 56 248 12.0 16.0 0.00 0.06 0.03 68 1022.8
20181016215702 55 248 12.0 16.0 0.00 0.06 0.03 68 1022.8
20181016215202 55 270 12.0 15.0 0.00 0.06 0.03 68 1022.8
20181016214201 55 270 12.0 15.0 0.00 0.06 0.03 68 1022.3
20181016213702 55 270 12.0 18.0 0.00 0.06 0.03 68 1022.3
20181016213202 55 249 9.0 16.0 0.03 0.06 0.03 68 1022.3
20181016212702 55 225 9.0 10.0 0.03 0.06 0.03 69 1022.4
20181016211702 55 248 9.0 13.0 0.03 0.06 0.03 69 1022.4
20181016211202 54 248 8.0 13.0 0.03 0.06 0.03 69 1022.4
20181016210202 53 248 10.0 12.0 0.03 0.06 0.03 69 1022.4
20181016205202 53 226 13.0 16.0 0.03 0.06 0.03 69 1022.4
20181016203702 53 292 10.0 14.0 0.03 0.06 0.03 66 1022.3
20181016203202 52 268 9.0 14.0 0.00 0.03 0.00 66 1022.3
20181016202703 52 248 8.0 14.0 0.00 0.03 0.00 67 1022.4
20181016202201 52 270 8.0 9.0 0.00 0.03 0.00 65 1022.4
20181016201702 51 270 8.0 12.0 0.00 0.03 0.00 66 1022.4
20181016200702 51 112 6.0 7.0 0.00 0.03 0.00 61 1022.7
20181016195702 51 315 7.0 7.0 0.00 0.03 0.00 61 1022.7
20181016195202 51 315 7.0 8.0 0.00 0.03 0.00 61 1022.7
20181016194202 50 251 7.0 12.0 0.00 0.03 0.00 64 1022.2
20181016193701 49 225 7.0 8.0 0.00 0.03 0.00 61 1022.2
20181016192702 49 315 3.0 7.0 0.00 0.03 0.00 49 1022.9
20181016191701 48 300 3.0 5.0 0.00 0.03 0.00 51 1022.9
20181016191202 48 315 3.0 5.0 0.00 0.03 0.00 49 1022.9
20181016190702 48 292 2.0 3.0 0.00 0.03 0.00 47 1022.7
20181016190202 48 315 2.0 3.0 0.00 0.03 0.00 48 1022.7
20181016185707 47 336 2.0 3.0 0.00 0.03 0.00 50 1022.2
20181016184702 47 315 2.0 3.0 0.00 0.03 0.00 50 1022.2
20181016184202 47 315 2.0 3.0 0.00 0.03 0.00 51 1022.2
20181016183702 47 307 2.0 3.0 0.00 0.03 0.00 51 1022.2
20181016183202 46 315 2.0 3.0 0.00 0.03 0.00 52 1022.2
20181016182701 46 300 3.0 6.0 0.00 0.03 0.00 52 1021.9
20181016182202 46 270 3.0 6.0 0.00 0.03 0.00 53 1021.9
20181016181702 46 301 3.0 5.0 0.00 0.03 0.00 52 1021.9
20181016180702 46 284 3.0 5.0 0.00 0.03 0.00 52 1021.8
20181016175702 46 270 3.0 5.0 0.00 0.03 0.00 54 1021.8
20181016175202 46 248 3.0 6.0 0.00 0.03 0.00 55 1021.8
20181016174702 46 248 5.0 6.0 0.00 0.06 0.00 56 1021.8
20181016173702 46 254 5.0 6.0 0.00 0.06 0.00 54 1021.8
20181016172203 46 270 2.0 3.0 0.00 0.06 0.00 52 1021.9
20181016171202 46 315 3.0 3.0 0.00 0.06 0.00 52 1021.9
20181016170202 46 315 2.0 3.0 0.00 0.06 0.00 52 1022.3
20181016165703 46 270 2.0 3.0 0.00 0.06 0.00 50 1022.3
20181016165202 46 270 2.0 3.0 0.00 0.06 0.00 50 1022.3
20181016164701 46 292 2.0 2.0 0.00 0.06 0.00 50 1022.6
20181016164202 46 292 2.0 5.0 0.00 0.06 0.00 48 1022.6
20181016163702 46 260 2.0 5.0 0.00 0.06 0.00 48 1022.6
20181016163202 46 270 2.0 3.0 0.00 0.06 0.00 47 1022.6
20181016162702 46 248 2.0 3.0 0.00 0.06 0.00 47 1022.9
20181016162202 46 270 2.0 3.0 0.00 0.06 0.00 46 1022.9
20181016161702 46 270 4.0 6.0 0.00 0.06 0.00 46 1022.9
20181016161202 46 248 6.0 7.0 0.00 0.06 0.00 46 1022.9
20181016160702 46 248 7.0 8.0 0.00 0.06 0.00 45 1023.3
20181016155702 45 248 4.0 8.0 0.00 0.06 0.00 43 1023.3
20181016155202 45 248 2.0 6.0 0.00 0.06 0.00 45 1023.3
20181016154702 45 248 1.0 3.0 0.00 0.06 0.00 46 1023.1
20181016153702 44 334 2.0 2.0 0.00 0.06 0.00 43 1023.1
20181016153202 44 315 1.0 2.0 0.00 0.06 0.00 41 1023.1
20181016152201 44 292 0.0 1.0 0.00 0.06 0.00 37 1023.4
20181016151201 44 270 3.0 3.0 0.00 0.06 0.00 30 1023.4
20181016150202 43 248 3.0 3.0 0.00 0.06 0.00 20 1023.9
20181016145202 43 248 3.0 5.0 0.00 0.06 0.00 10 1023.9
20181016144702 43 286 3.0 5.0 0.00 0.06 0.00 7 1024.1
20181016144202 42 270 3.0 5.0 0.00 0.06 0.00 35 1024.1
20181016143702 42 251 3.0 5.0 0.00 0.06 0.00 99 1024.1
20181016143202 42 315 3.0 5.0 0.00 0.06 0.00 99 1024.1
20181016142702 42 270 3.0 3.0 0.00 0.06 0.00 99 1024.4
20181016141702 41 270 3.0 5.0 0.00 0.06 0.00 99 1024.4
20181016140203 40 270 2.0 2.0 0.00 0.06 0.00 2 1024.7
20181016135702 40 270 2.0 2.0 0.00 0.06 0.00 2 1024.7
20181016135202 40 270 3.0 5.0 0.00 0.06 0.00 4 1024.7
20181016134702 40 334 2.0 6.0 0.00 0.06 0.00 6 1024.9
20181016134202 39 270 0.0 6.0 0.00 0.06 0.00 15 1024.9
20181016133702 39 248 0.0 0.0 0.00 0.06 0.00 17 1024.9
20181016132702 39 178 0.0 0.0 0.00 0.06 0.00 24 1025.1
20181016132202 38 180 0.0 0.0 0.00 0.06 0.00 28 1025.1
20181016131701 38 195 0.0 1.0 0.00 0.06 0.00 33 1025.1
20181016131202 38 292 0.0 1.0 0.00 0.06 0.00 37 1025.1
20181016130702 38 315 0.0 1.0 0.00 0.06 0.00 38 1025.4
20181016125702 39 331 0.0 0.0 0.00 0.06 0.00 38 1025.4
20181016125202 39 45 0.0 0.0 0.00 0.06 0.00 40 1025.4
20181016124701 39 50 0.0 0.0 0.00 0.06 0.00 40 1026.0
20181016124202 39 68 0.0 0.0 0.00 0.06 0.00 41 1026.0
20181016122202 39 68 0.0 0.0 0.00 0.06 0.00 43 1026.4
20181016121201 40 68 0.0 0.0 0.00 0.06 0.00 44 1026.4
20181016120702 40 68 0.0 0.0 0.00 0.06 0.00 43 1026.7
20181016120202 40 68 0.0 0.0 0.00 0.06 0.00 44 1026.7
20181016115702 40 68 0.0 0.0 0.00 0.06 0.00 43 1026.7
20181016115202 40 68 0.0 0.0 0.00 0.06 0.00 43 1026.7
20181016114702 40 68 0.0 0.0 0.00 0.06 0.00 43 1026.8
20181016114202 40 68 0.0 0.0 0.00 0.06 0.00 43 1026.8
20181016113704 40 68 0.0 0.0 0.00 0.06 0.00 45 1026.8
20181016113202 40 45 0.0 1.0 0.00 0.06 0.00 46 1026.8
20181016112702 40 45 0.0 1.0 0.00 0.06 0.00 46 1027.2
20181016112202 40 45 0.0 1.0 0.00 0.06 0.00 49 1027.2
20181016111702 41 45 1.0 1.0 0.00 0.06 0.00 50 1027.2
20181016110703 41 45 0.0 1.0 0.00 0.06 0.00 53 1027.4
20181016110202 41 45 0.0 1.0 0.00 0.06 0.00 54 1027.4
20181016105701 41 345 0.0 1.0 0.00 0.06 0.06 54 1027.4
20181016105203 41 22 0.0 1.0 0.00 0.06 0.06 55 1027.4
20181016104702 41 12 0.0 1.0 0.00 0.06 0.06 55 1027.8
20181016103702 42 22 0.0 0.0 0.00 0.06 0.06 55 1027.8
20181016103202 42 45 0.0 0.0 0.00 0.06 0.06 56 1027.8
20181016102702 42 22 0.0 0.0 0.00 0.06 0.06 56 1028.3
20181016102202 42 22 0.0 0.0 0.00 0.06 0.06 56 1028.3
20181016101702 42 24 0.0 0.0 0.00 0.06 0.06 56 1028.3
20181016101202 42 22 0.0 0.0 0.00 0.06 0.06 56 1028.3
20181016100702 42 22 0.0 0.0 0.00 0.06 0.06 56 1028.4
20181016100202 43 22 0.0 1.0 0.00 0.06 0.06 57 1028.4
20181016095702 43 22 0.0 1.0 0.00 0.06 0.06 57 1028.4
20181016095202 43 22 1.0 1.0 0.00 0.06 0.06 57 1028.4
20181016094202 43 0 1.0 2.0 0.00 0.06 0.06 59 1028.6
20181016093701 43 18 1.0 2.0 0.00 0.06 0.06 59 1028.6
20181016093203 43 338 2.0 2.0 0.00 0.06 0.06 60 1028.6
20181016092702 43 22 2.0 2.0 0.00 0.06 0.06 60 1028.8
20181016091702 44 22 2.0 2.0 0.00 0.06 0.06 61 1028.8
20181016091204 44 0 2.0 2.0 0.00 0.06 0.06 61 1028.8
20181016090703 44 339 2.0 2.0 0.00 0.06 0.06 61 1028.9
20181016090202 44 22 1.0 2.0 0.00 0.06 0.06 63 1028.9
20181016085702 44 0 1.0 2.0 0.00 0.06 0.06 64 1028.9
20181016085203 44 68 1.0 1.0 0.00 0.06 0.06 64 1028.9
20181016084703 44 22 1.0 1.0 0.00 0.06 0.06 64 1028.9
20181016084202 44 22 1.0 1.0 0.00 0.06 0.06 65 1028.9
20181016083701 45 0 1.0 2.0 0.00 0.06 0.06 65 1028.9
20181016083202 45 22 1.0 2.0 0.00 0.06 0.06 66 1028.9
20181016082203 45 316 2.0 2.0 0.00 0.06 0.06 66 1029.1
20181016081702 45 0 2.0 2.0 0.00 0.06 0.06 67 1029.1
20181016081203 46 339 2.0 2.0 0.00 0.06 0.06 67 1029.1
20181016080702 46 338 2.0 2.0 0.00 0.06 0.06 67 1029.3